User: anonymous
Location: Unspecified
(0.0000°N, 0.0000°E)
Time: 13:22:39
(UTC+00:00)
Language:

SWISSCUBE - Orbit

View from above orbital plane
View from above orbital plane
View from above satellite
View from above satellite

Ground track
Ground track

The orbit data is extracted from the following two-line orbital elements,

1 35932U 09051B   14235.05777896  .00000502  00000-0  12848-3 0  3842
2 35932 098.3850 347.4883 0008562 168.9957 191.1428 14.54530284260617
Epoch (UTC): 23 August 2014 01:23:12
Eccentricity: 0.0008562
inclination: 98.3850°
perigee height: 705 km
apogee height: 717 km
right ascension of ascending node: 347.4883°
argument of perigee: 168.9957°
revolutions per day: 14.54530284
mean anomaly at epoch: 191.1428°
orbit number at epoch: 26061

The dashed part of the orbit path shows where the satellite is in the earth's shadow,  

DLR